Location: Ferintosh
(52.7647°N, 112.9692°W)
Time: 15:46:18
(UTC+00:00)

Transit 2A Rocket - Pass Details

Date: 28 May 2024
Orbit: 583 x 910 km, 66.7° (Epoch: 22 June)

Event Time Altitude Azimuth Distance (km) Brightness Sun altitude
Rises 12:33:14 0° 267° (W) 3,133 7.6 9.0°
Reaches altitude 10° 12:35:52 10° 280° (W) 2,272 7.0 9.4°
Maximum altitude 12:40:16 27° 337° (NNW) 1,510 6.6 10.0°
Drops below altitude 10° 12:45:00 10° 34° (NE) 2,460 8.7 10.7°
Sets 12:47:59 0° 46° (NE) 3,447 9.8 11.1°
